Weather in Kireevsk

Russia / Tula Oblast     53°56′05″N   37°55′42″E
temp.,
°C
wind,
m/s
gust,
m/s
humid.,
%
clouds,
%
prec.,
mm/h
press.,
hPa
HPBL,
m
13 may, thu
thu1300:00+6ese349652 0.0 101980
03:00+6e489676 0.0 1019154
06:00+7e5129436 0.0 1019325
09:00+11ese6128455 0.0 1018587
12:00+14sse71076100 0.5 10171214
15:00+13se5108759 4.0 1016588
18:00+14s4108394 1.0 1015904
21:00+11s2290100 1.5 101621
14 may, fri
fri1400:00+10sse33925 0.0 101632
03:00+9sse3391100 0.0 101644
06:00+11se3692100 0.0 1017142
09:00+16se478398 0.1 1016408
12:00+19se697289 0.1 1015969
15:00+21se7116898 0.3 10131464
18:00+20sse81474100 1.5 1011796
21:00+15se3891100 1.8 1011141
15 may, sat
sat1500:00+15sse41292100 1.1 1011288
03:00+15se4109592 4.6 1009211
06:00+15se499795 1.2 1010263
09:00+19ssw5780100 1.2 1010546
12:00+21ssw686786 0.1 10111341
15:00+21sw69570 0.1 10111830
18:00+19sw58702 0.2 1011662
21:00+15ssw338831 0.3 101246
16 may, sun
sun1600:00+13s369220 0.0 101398
03:00+12ssw49935 0.0 1013168
06:00+13ssw499287 0.0 1014273
09:00+16sw576917 0.0 1015637
12:00+19sw45601 0.0 10151128
15:00+21sw34550 0.0 10151318
18:00+21wsw236315 0.0 10141189
21:00+16nne1173100 0.0 101511
17 may, mon
mon1700:00+14ene348042 0.0 101552
03:00+13ene498619 0.0 1015154
06:00+14ene5118969 0.0 1014269
09:00+19e6107783 0.0 1014463
12:00+23ese796433 0.0 1013762
15:00+25ese61155100 0.0 10121354
18:00+22ese61265100 0.0 1011510
21:00+18ese515785 0.0 1011312